Weather History for Centralia, IL

Change the Weather History Date:

Tuesday, May 13, 2014

  Actual Average (KSLO) Record (KSLO)
Temperature  
Mean Temperature 62 °F -  
Max Temperature 72 °F 75 °F 89 °F (1962)
Min Temperature 52 °F 52 °F 33 °F (1960)
Degree Days  
Heating Degree Days 3    
Growing Degree Days 12 (Base 50)    
Moisture  
Dew Point 58 °F    
Average Humidity 88    
Maximum Humidity 94    
Minimum Humidity 80    
Precipitation  
Precipitation 0.18 in - - ()
Sea Level Pressure  
Sea Level Pressure 30.05 in    
Wind  
Wind Speed 9 mph (WNW)    
Max Wind Speed 15 mph    
Max Gust Speed 20 mph    
Visibility 8 miles    
Events Rain    
Averages and records for this station are not official NWS values.
T = Trace of Precipitation, MM = Missing Value Source: NWS Daily Summary

Daily Weather History Graph

Daily Weather History Graph

Search for Another Location

Airport:

Trip Planner

Search our weather history database for the weather conditions in past years. The results will help you decide how hot, cold, wet, or windy it might be!

Date:

Astronomy

May. 13, 2014 Rise Set
Actual Time 5:46 AM CDT 7:59 PM CDT
Civil Twilight 5:16 AM CDT 8:29 PM CDT
Nautical Twilight 4:40 AM CDT 9:05 PM CDT
Astronomical Twilight 4:01 AM CDT 9:45 PM CDT
Moon 7:01 PM CDT (5/13) 5:01 AM CDT (5/13)
Length of Visible Light 15h 12m
Length of Day
14h 12m
Waxing Gibbous, 99% of the Moon is Illuminated
May 13
Waxing Gibbous
May 14
Full
May 21
Last Quarter
May 28
New
Jun 5
First Quarter

Hourly Weather History & Observations

Time (CDT) Temp. Dew Point Humidity Pressure Visibility Wind Dir Wind Speed Gust Speed Precip Events Conditions
12:15 AM 71.8 °F 65.7 °F 81% 29.92 in 10.0 mi SSE 9.2 mph - N/A   Overcast
12:35 AM 72.1 °F 65.8 °F 80% 29.92 in 10.0 mi SSE 11.5 mph - N/A   Overcast
12:55 AM 72.1 °F 66.2 °F 82% 29.92 in 10.0 mi South 12.7 mph 18.4 mph N/A   Overcast
1:15 AM 72.1 °F 66.0 °F 81% 29.94 in 10.0 mi SSW 9.2 mph - N/A   Overcast
1:35 AM 71.8 °F 65.7 °F 81% 29.94 in 10.0 mi SSW 12.7 mph 17.3 mph N/A   Overcast
1:55 AM 71.4 °F 65.7 °F 82% 29.93 in 10.0 mi SSW 9.2 mph - N/A   Mostly Cloudy
2:15 AM 70.0 °F 65.8 °F 87% 29.94 in 10.0 mi SW 8.1 mph - N/A Rain Light Rain
2:35 AM 68.7 °F 64.6 °F 87% 29.95 in 10.0 mi WSW 11.5 mph 19.6 mph N/A Rain Light Rain
2:55 AM 67.5 °F 63.7 °F 88% 29.95 in 7.0 mi WSW 9.2 mph 17.3 mph N/A Rain Rain
3:15 AM 66.6 °F 63.5 °F 90% 29.97 in 5.0 mi SW 9.2 mph - 0.03 in Rain Heavy Rain
3:35 AM 66.2 °F 63.3 °F 90% 29.96 in 7.0 mi WSW 5.8 mph - 0.08 in Rain Rain
3:55 AM 66.2 °F 62.8 °F 89% 29.95 in 7.0 mi SW 4.6 mph - 0.08 in Rain Rain
4:15 AM 65.7 °F 63.0 °F 91% 29.95 in 7.0 mi South 3.5 mph - N/A Rain Light Rain
4:35 AM 65.3 °F 62.6 °F 91% 29.93 in 7.0 mi SE 6.9 mph - N/A Rain Rain
4:55 AM 65.3 °F 62.8 °F 92% 29.94 in 7.0 mi South 6.9 mph - 0.01 in Rain Rain
5:15 AM 65.3 °F 62.8 °F 92% 29.95 in 7.0 mi South 6.9 mph - 0.05 in Rain Rain
5:35 AM 64.9 °F 62.6 °F 92% 29.94 in 10.0 mi SSE 6.9 mph - 0.06 in Rain Light Rain
5:55 AM 64.9 °F 62.6 °F 92% 29.93 in 7.0 mi ESE 3.5 mph - 0.06 in Rain Rain
6:15 AM 64.8 °F 62.6 °F 93% 29.95 in 10.0 mi SSE 6.9 mph - N/A   Light Drizzle
6:35 AM 64.9 °F 62.6 °F 92% 29.97 in 10.0 mi West 6.9 mph - N/A   Scattered Clouds
6:55 AM 65.3 °F 62.8 °F 92% 29.98 in 10.0 mi SW 4.6 mph - N/A Rain Light Rain
7:55 AM 66.2 °F 64.4 °F 94% 30.00 in 10.0 mi SW 6.9 mph - N/A   Mostly Cloudy
8:15 AM 66.4 °F 63.5 °F 90% 30.00 in 10.0 mi WSW 6.9 mph - N/A   Overcast
8:35 AM 66.7 °F 63.5 °F 89% 30.01 in 10.0 mi SW 5.8 mph - N/A   Light Drizzle
9:15 AM 67.1 °F 64.0 °F 90% 30.02 in 10.0 mi SW 5.8 mph - N/A Rain Light Rain
10:55 AM 63.9 °F 60.4 °F 89% 30.05 in 10.0 mi West 6.9 mph 10.4 mph N/A   Light Drizzle
11:35 AM 63.7 °F 60.6 °F 90% 30.04 in 7.0 mi WNW 8.1 mph - N/A   Light Drizzle
12:15 PM 63.5 °F 59.7 °F 87% 30.06 in 10.0 mi West 8.1 mph 16.1 mph N/A   Overcast
12:35 PM 62.6 °F 58.5 °F 86% 30.06 in 10.0 mi WNW 12.7 mph 17.3 mph N/A   Overcast
12:55 PM 63.0 °F 58.6 °F 86% 30.07 in 10.0 mi WNW 9.2 mph - N/A   Overcast
1:15 PM 62.8 °F 58.3 °F 85% 30.07 in 10.0 mi WNW 8.1 mph - N/A   Overcast
1:35 PM 62.2 °F 57.6 °F 85% 30.07 in 7.0 mi NW 10.4 mph - N/A Rain Rain
1:55 PM 61.7 °F 58.3 °F 89% 30.07 in 2.0 mi NW 5.8 mph - N/A   Drizzle
2:15 PM 61.7 °F 58.6 °F 90% 30.07 in 2.5 mi WNW 9.2 mph - N/A   Light Drizzle
2:35 PM 62.1 °F 58.1 °F 87% 30.08 in 10.0 mi West 8.1 mph - N/A   Overcast
2:55 PM 61.0 °F 57.7 °F 89% 30.08 in 2.0 mi West 8.1 mph - N/A Rain Rain
3:15 PM 60.1 °F 57.2 °F 90% 30.09 in 2.0 mi WNW 13.8 mph 19.6 mph 0.01 in Rain Rain
3:35 PM 59.7 °F 56.8 °F 90% 30.10 in 3.0 mi WNW 11.5 mph 17.3 mph 0.01 in Rain Light Rain
3:55 PM 59.0 °F 56.3 °F 91% 30.09 in 3.0 mi NW 9.2 mph 17.3 mph 0.01 in Rain Rain
4:15 PM 58.5 °F 55.6 °F 90% 30.10 in 5.0 mi NW 15.0 mph 19.6 mph N/A Rain Rain
4:35 PM 58.3 °F 55.4 °F 90% 30.10 in 10.0 mi NNW 10.4 mph 18.4 mph N/A   Overcast
4:55 PM 58.6 °F 55.2 °F 88% 30.11 in 10.0 mi NW 9.2 mph 18.4 mph N/A   Overcast
5:15 PM 57.7 °F 54.5 °F 89% 30.11 in 10.0 mi NNW 11.5 mph - N/A   Overcast
5:35 PM 59.0 °F 53.6 °F 82% 30.11 in 10.0 mi NW 9.2 mph - N/A   Overcast
5:55 PM 58.5 °F 53.8 °F 84% 30.10 in 10.0 mi NW 10.4 mph - N/A   Overcast
6:15 PM 57.7 °F 53.6 °F 86% 30.11 in 10.0 mi NW 12.7 mph 18.4 mph N/A   Overcast
6:35 PM 57.2 °F 52.7 °F 85% 30.11 in 10.0 mi NW 9.2 mph 17.3 mph N/A   Light Drizzle
6:55 PM 57.2 °F 52.9 °F 85% 30.12 in 10.0 mi NNW 8.1 mph - N/A   Mostly Cloudy
7:15 PM 56.5 °F 52.5 °F 87% 30.13 in 10.0 mi NNW 11.5 mph - N/A   Light Drizzle
7:35 PM 56.3 °F 52.0 °F 85% 30.13 in 10.0 mi NNW 9.2 mph - N/A   Light Drizzle
7:55 PM 55.9 °F 51.8 °F 86% 30.13 in 10.0 mi NNW 12.7 mph 18.4 mph N/A   Light Drizzle
8:15 PM 55.9 °F 51.8 °F 86% 30.14 in 10.0 mi North 5.8 mph 17.3 mph N/A   Drizzle
8:35 PM 55.0 °F 51.1 °F 86% 30.15 in 10.0 mi North 8.1 mph - N/A Rain Rain
8:55 PM 54.7 °F 51.3 °F 88% 30.16 in 10.0 mi North 8.1 mph - N/A   Light Drizzle
9:15 PM 54.5 °F 50.5 °F 86% 30.17 in 10.0 mi NNW 9.2 mph - N/A   Drizzle
9:35 PM 54.1 °F 50.4 °F 87% 30.17 in 10.0 mi North 8.1 mph - N/A   Drizzle
9:55 PM 53.8 °F 50.4 °F 88% 30.18 in 10.0 mi NNW 8.1 mph - N/A Rain Light Rain
10:15 PM 53.2 °F 50.4 °F 90% 30.18 in 7.0 mi NNW 10.4 mph - 0.02 in Rain Light Rain
10:35 PM 52.9 °F 49.8 °F 89% 30.20 in 10.0 mi NNW 10.4 mph - 0.02 in   Light Drizzle
10:55 PM 53.6 °F 50.0 °F 88% 30.19 in 10.0 mi North 8.1 mph - N/A   Light Drizzle
11:15 PM 52.7 °F 49.5 °F 89% 30.19 in 7.0 mi NNW 8.1 mph - N/A Rain Light Rain
11:35 PM 52.7 °F 49.5 °F 89% 30.20 in 10.0 mi NNW 10.4 mph - N/A Rain Rain
11:55 PM 52.7 °F 49.5 °F 89% 30.20 in 7.0 mi NNW 8.1 mph - N/A Rain Light Rain